#timestamp,LO_Frequency,Hit,StdDev 
1609457735.5,286047000.7,P
1609457755.4,286047000.3,P
1609457775.2,286047000.3,N
1609457795.0,286046999.3,Y
1609457795.9,286046999.3,P
1609457815.8,286046995.6,P
1609457835.6,286046993.8,N
1609457855.5,286046995.0,N
1609457875.3,286046996.5,N
1609457895.1,286046996.7,N
1609457915.9,286046995.8,N
1609457935.7,286046996.2,N
1609457955.6,286046995.6,N
1609457975.4,286046993.6,Y
1609457995.2,286046997.1,P
1609458015.1,286047004.0,P
1609458016.0,286047004.0,N
1609458035.8,286047007.5,N
1609458055.7,286047012.1,N
1609458075.5,286047013.1,N
1609458095.3,286047015.3,N
1609458115.2,286047019.8,N
1609458135.0,286047016.0,N
1609458135.9,286047016.0,N
1609458155.7,286047011.7,N
1609458175.6,286047010.2,N
1609458195.4,286047007.3,N
1609458215.3,286047003.9,N
1609458235.1,286047002.1,N
1609458236.0,286047002.1,N
1609458255.8,286047001.3,N
1609458275.7,286046999.8,N
1609458295.5,286047000.1,N
1609458315.3,286047002.8,N
1609458335.2,286047001.5,N
1609458355.0,286047002.8,N
1609458355.9,286047002.8,N
1609458375.8,286047002.1,N
1609458395.6,286047004.3,N
1609458415.4,286047001.4,N
1609458435.3,286047002.7,N
1609458455.1,286046998.4,N
1609458475.8,286047000.4,N
1609458495.7,286046999.9,N
1609458515.5,286047000.7,N
1609458535.4,286047000.0,N
1609458555.2,286046998.2,N
1609458575.0,286047001.1,N
1609458575.9,286047001.1,N
1609458595.8,286047000.9,N
1609458615.6,286047000.1,N
1609458635.4,286047002.6,N
1609458655.3,286047002.5,N
1609458675.1,286047000.5,N
1609458695.9,286047000.4,N
1609458715.7,286047002.7,N
1609458735.5,286047000.3,N
1609458755.4,286046999.7,N
1609458775.2,286046998.2,N
1609458795.0,286046998.2,N
1609458796.0,286046998.2,N
1609458815.8,286046999.8,N
1609458835.6,286047001.9,N
1609458855.5,286047002.0,N
1609458875.3,286047000.3,N
1609458895.1,286047002.0,N
1609458915.9,286047002.0,N
1609458935.7,286047002.4,N
1609458955.6,286047000.5,N
1609458975.4,286046997.0,N
1609458995.2,286046995.6,N
1609459015.1,286046994.4,Y
1609459016.0,286046994.4,P
1609459035.8,286046994.6,N
1609459055.6,286046991.7,P
1609459075.5,286046994.3,N
1609459095.3,286046992.1,N
1609459115.2,286046992.9,N
1609459135.9,286046991.4,Y
1609459155.7,286046997.9,P
1609459175.6,286046997.2,N
1609459195.4,286046996.7,N
